FW6223 Weather Reports


time (UTC)temp
F
wind
direction
speed
knots
gust
knots
rain 1hr
in
rain 24hr
in
rain mn
in
humidity
%
barometer
mb
20260502222017 50 248 1.7 7.0 0.00 0.00 0.00 45 1016.7
20260502221516 51 293 3.5 7.0 0.00 0.00 0.00 44 1016.6
20260502221016 51 248 1.7 7.0 0.00 0.00 0.00 46 1016.6
20260502220516 51 0.0 4.3 0.00 0.00 0.00 47 1016.7
20260502220016 51 0.0 2.6 0.00 0.00 0.00 46 1016.7
20260502215517 51 248 1.7 5.2 0.00 0.00 0.00 44 1016.7
20260502215016 51 248 1.7 4.3 0.00 0.00 0.00 45 1016.7
20260502214516 51 270 1.7 9.6 0.00 0.00 0.00 45 1016.8
20260502214016 51 248 1.7 4.3 0.00 0.00 0.00 47 1016.8
20260502213516 50 293 1.7 5.2 0.00 0.00 0.00 46 1016.7
20260502213016 50 0.0 2.6 0.00 0.00 0.00 49 1016.7
20260502212516 50 248 1.7 4.3 0.00 0.00 0.00 47 1016.8
20260502212016 50 248 3.5 11.3 0.00 0.00 0.00 46 1016.8
20260502211547 50 248 1.7 4.3 0.00 0.00 0.00 47 1016.8
20260502211016 50 293 1.7 9.6 0.00 0.00 0.00 46 1016.8
20260502210546 50 248 1.7 4.3 0.00 0.00 0.00 48 1016.8
20260502210016 50 293 3.5 7.0 0.00 0.00 0.00 45 1016.9
20260502205546 50 248 1.7 7.0 0.00 0.00 0.00 46 1016.9
20260502205016 50 248 1.7 7.0 0.00 0.00 0.00 47 1017.0
20260502204516 49 270 1.7 7.0 0.00 0.00 0.00 48 1017.1
20260502204016 49 0.0 2.6 0.00 0.00 0.00 49 1017.0
20260502203516 49 293 1.7 11.3 0.00 0.00 0.00 47 1017.2
20260502203016 49 315 1.7 7.0 0.00 0.00 0.00 46 1017.1
20260502202516 49 293 1.7 4.3 0.00 0.00 0.00 48 1017.1
20260502202016 49 248 1.7 7.0 0.00 0.00 0.00 47 1017.1
20260502201516 50 248 1.7 4.3 0.00 0.00 0.00 47 1017.1
20260502201016 50 293 1.7 8.7 0.00 0.00 0.00 46 1017.1
20260502200516 49 0.0 2.6 0.00 0.00 0.00 49 1017.3
20260502200046 49 0.0 5.2 0.00 0.00 0.00 48 1017.4
20260502195516 49 270 1.7 7.0 0.00 0.00 0.00 48 1017.5
20260502195016 50 270 1.7 5.2 0.00 0.00 0.00 47 1017.6
20260502194516 50 248 1.7 4.3 0.00 0.00 0.00 48 1017.6
20260502194016 49 270 1.7 5.2 0.00 0.00 0.00 47 1017.7
20260502193516 49 293 1.7 8.7 0.00 0.00 0.00 47 1017.8
20260502193016 49 293 3.5 7.0 0.00 0.00 0.00 46 1017.9
20260502192516 49 338 1.7 7.0 0.00 0.00 0.00 47 1018.0
20260502192016 49 270 3.5 8.7 0.00 0.00 0.00 46 1017.9
20260502191516 49 270 1.7 7.0 0.00 0.00 0.00 46 1018.0
20260502191016 49 293 1.7 5.2 0.00 0.00 0.00 46 1018.0
20260502190516 49 293 3.5 11.3 0.00 0.00 0.00 45 1018.1
20260502190016 49 248 1.7 5.2 0.00 0.00 0.00 49 1018.1
20260502185516 48 293 1.7 7.0 0.00 0.00 0.00 48 1018.3
20260502185116 48 270 1.7 5.2 0.00 0.00 0.00 48 1018.3
20260502184516 48 293 1.7 8.7 0.00 0.00 0.00 48 1018.4
20260502184116 47 248 1.7 5.2 0.00 0.00 0.00 50 1018.4
20260502183546 47 0.0 1.7 0.00 0.00 0.00 50 1018.4
20260502183016 47 248 1.7 4.3 0.00 0.00 0.00 51 1018.4
20260502182516 47 293 1.7 5.2 0.00 0.00 0.00 49 1018.3
20260502182016 47 248 1.7 7.0 0.00 0.00 0.00 49 1018.4
20260502181516 48 293 1.7 7.0 0.00 0.00 0.00 48 1018.4
20260502181016 47 270 1.7 7.0 0.00 0.00 0.00 51 1018.5
20260502180516 47 270 1.7 7.0 0.00 0.00 0.00 48 1018.5
20260502170516 48 0.0 7.0 0.00 0.00 0.00 50 1018.9
20260502164016 47 248 1.7 9.6 0.00 0.00 0.00 47 1018.9
20260502163516 47 270 1.7 5.2 0.00 0.00 0.00 47 1019.0
20260502163046 46 315 1.7 7.0 0.00 0.00 0.00 51 1019.1
20260502162516 46 293 1.7 8.7 0.00 0.00 0.00 51 1019.1
20260502162046 46 315 1.7 7.0 0.00 0.00 0.00 49 1019.1
20260502161516 46 0.0 2.6 0.00 0.00 0.00 49 1019.1
20260502161016 46 315 1.7 5.2 0.00 0.00 0.00 51 1019.2
20260502160546 46 293 1.7 7.0 0.00 0.00 0.00 51 1019.2
20260502152016 46 248 1.7 4.3 0.00 0.00 0.00 49 1019.1
20260502151516 46 293 1.7 7.0 0.00 0.00 0.00 47 1019.2
20260502151016 47 270 1.7 5.2 0.00 0.00 0.00 48 1019.1
20260502150516 47 270 1.7 4.3 0.00 0.00 0.00 48 1019.1
20260502130516 39 315 1.7 4.3 0.00 0.00 0.00 65 1019.4
20260502123546 36 315 1.7 8.7 0.00 0.00 0.00 73 1019.4
20260502123016 36 0.0 8.7 0.00 0.00 0.00 74 1019.3
20260502122515 36 315 1.7 8.7 0.00 0.00 0.00 75 1019.3
20260502122045 36 293 1.7 4.3 0.00 0.00 0.00 74 1019.3
20260502121515 35 0.0 1.7 0.00 0.00 0.00 75 1019.3
20260502121016 35 315 1.7 7.0 0.00 0.00 0.00 75 1019.3
20260502120715 35 293 1.7 7.0 0.00 0.00 0.00 76 1019.3
20260502115516 34 338 1.7 4.3 0.00 0.00 0.00 77 1019.3
20260502115015 34 0.0 4.3 0.00 0.00 0.00 78 1019.2
20260502114515 34 293 1.7 4.3 0.00 0.00 0.00 78 1019.2
20260502114015 34 0.0 2.6 0.00 0.00 0.00 79 1019.3
20260502113515 33 338 1.7 4.3 0.00 0.00 0.00 79 1019.2
20260502113015 33 0.0 1.7 0.00 0.00 0.00 80 1019.2
20260502112515 32 0.0 1.7 0.00 0.00 0.00 81 1019.1
20260502112045 32 0.0 1.7 0.00 0.00 0.00 82 1019.1
20260502111516 31 0.0 1.7 0.00 0.00 0.00 84 1019.0
20260502111016 31 0.0 1.7 0.00 0.00 0.00 86 1019.0
20260502110515 30 0.0 1.7 0.00 0.00 0.00 86 1019.0
20260502110015 31 0.0 0.0 0.00 0.00 0.00 86 1018.9
20260502105515 31 0.0 0.0 0.00 0.00 0.00 86 1018.9
20260502105015 31 0.0 0.0 0.00 0.00 0.00 86 1018.9
20260502104515 31 0.0 0.0 0.00 0.00 0.00 85 1018.8
20260502104015 31 0.0 0.0 0.00 0.00 0.00 84 1018.9
20260502103515 31 0.0 0.0 0.00 0.00 0.00 84 1019.0
20260502103015 31 0.0 0.0 0.00 0.00 0.00 84 1019.0
20260502102515 32 0.0 0.0 0.00 0.00 0.00 83 1018.8
20260502102015 32 0.0 0.0 0.00 0.00 0.00 82 1018.8
20260502101515 32 0.0 0.0 0.00 0.00 0.00 82 1018.7
20260502101045 32 0.0 0.0 0.00 0.00 0.00 81 1018.7
20260502100515 32 0.0 0.0 0.00 0.00 0.00 81 1018.6
20260502091517 34 0.0 0.0 0.00 0.00 0.00 77 1018.4
20260502091017 34 0.0 0.0 0.00 0.00 0.00 77 1018.3
20260502090517 34 0.0 0.0 0.00 0.00 0.00 76 1018.3
20260502071517 38 0.0 4.3 0.00 0.00 0.00 68 1018.0
20260502071017 38 0.0 1.7 0.00 0.00 0.00 69 1018.0
20260502070517 38 0.0 1.7 0.00 0.00 0.00 68 1018.1
20260502070017 38 0.0 2.6 0.00 0.00 0.00 67 1018.2
20260502065517 38 0.0 2.6 0.00 0.00 0.00 67 1018.1
20260502065017 39 0.0 1.7 0.00 0.00 0.00 67 1018.2
20260502064617 39 0.0 1.7 0.00 0.00 0.00 66 1018.2
20260502064047 39 0.0 1.7 0.00 0.00 0.00 66 1018.2
20260502063517 39 0.0 1.7 0.00 0.00 0.00 66 1018.3
20260502063017 39 0 1.7 4.3 0.00 0.00 0.00 66 1018.2
20260502062517 39 0.0 4.3 0.00 0.00 0.00 66 1018.3
20260502062017 39 0.0 1.7 0.00 0.00 0.00 65 1018.4
20260502061517 39 0.0 2.6 0.00 0.00 0.00 65 1018.4
20260502061017 39 0.0 2.6 0.00 0.00 0.00 65 1018.4
20260502060517 39 0.0 2.6 0.00 0.00 0.00 65 1018.3
20260502060017 39 0.0 1.7 0.00 0.00 0.00 66 1018.3
20260502055517 40 0.0 1.7 0.00 0.00 0.00 65 1018.3
20260502055017 40 0.0 2.6 0.00 0.00 0.00 65 1018.4
20260502054517 40 0.0 1.7 0.00 0.00 0.00 65 1018.4
20260502054017 40 0.0 2.6 0.00 0.00 0.00 64 1018.4
20260502053547 40 0.0 2.6 0.00 0.00 0.00 64 1018.4
20260502053017 40 0.0 1.7 0.00 0.00 0.00 64 1018.4
20260502052517 40 293 1.7 4.3 0.00 0.00 0.00 63 1018.3
20260502052017 40 338 1.7 5.2 0.00 0.00 0.00 63 1018.3
20260502051516 40 0.0 1.7 0.00 0.00 0.00 64 1018.3
20260502051017 40 0.0 4.3 0.00 0.00 0.00 63 1018.3
20260502050517 40 0.0 4.3 0.00 0.00 0.00 63 1018.2
20260502050016 40 0.0 4.3 0.00 0.00 0.00 63 1018.3
20260502045517 40 0.0 2.6 0.00 0.00 0.00 62 1018.2
20260502045017 40 0.0 2.6 0.00 0.00 0.00 62 1018.1
20260502044516 40 0.0 2.6 0.00 0.00 0.00 63 1018.0
20260502044017 40 0.0 1.7 0.00 0.00 0.00 62 1018.0
20260502043517 40 0.0 1.7 0.00 0.00 0.00 62 1018.0
20260502043017 41 0.0 1.7 0.00 0.00 0.00 61 1018.0
20260502042516 41 0.0 2.6 0.00 0.00 0.00 62 1017.9
20260502042047 41 0.0 2.6 0.00 0.00 0.00 62 1017.8
20260502041516 41 0.0 1.7 0.00 0.00 0.00 62 1017.8
20260502041017 41 0.0 1.7 0.00 0.00 0.00 62 1017.8
20260502040617 41 0.0 1.7 0.00 0.00 0.00 61 1017.8
20260502040017 41 0.0 1.7 0.00 0.00 0.00 60 1017.8
20260502035517 41 0.0 2.6 0.00 0.00 0.00 61 1017.8
20260502035017 41 0.0 4.3 0.00 0.00 0.00 62 1017.8
20260502034517 41 0.0 2.6 0.00 0.00 0.00 63 1017.7
20260502034017 41 0.0 2.6 0.00 0.00 0.00 63 1017.7
20260502033547 41 0.0 4.3 0.00 0.00 0.00 62 1017.7
20260502033047 41 0.0 1.7 0.00 0.00 0.00 62 1017.8
20260502032517 41 0.0 1.7 0.00 0.00 0.00 63 1017.7
20260502032017 41 0.0 1.7 0.00 0.00 0.00 63 1017.7
20260502031517 41 0.0 1.7 0.00 0.00 0.00 63 1017.7
20260502031017 41 293 1.7 2.6 0.00 0.00 0.00 62 1017.6
20260502030517 41 293 1.7 4.3 0.00 0.00 0.00 62 1017.6
20260502030017 41 0.0 7.0 0.00 0.00 0.00 62 1017.7
20260502025517 41 338 1.7 7.0 0.00 0.00 0.00 62 1017.7
20260502025017 42 0 1.7 2.6 0.00 0.00 0.00 62 1017.6
20260502024517 42 0.0 2.6 0.00 0.00 0.00 63 1017.6
20260502024017 42 0.0 1.7 0.00 0.00 0.00 62 1017.6
20260502023517 42 338 1.7 4.3 0.00 0.00 0.00 61 1017.5
20260502023047 42 0.0 2.6 0.00 0.00 0.00 61 1017.6
20260502022517 42 0.0 2.6 0.00 0.00 0.00 62 1017.5
20260502022017 42 293 1.7 7.0 0.00 0.00 0.00 61 1017.5
20260502021517 42 293 1.7 4.3 0.00 0.00 0.00 61 1017.5
20260502021117 42 270 1.7 5.2 0.00 0.00 0.00 61 1017.4
20260502020517 42 0.0 5.2 0.00 0.00 0.00 61 1017.4
20260502020147 42 0.0 2.6 0.00 0.00 0.00 61 1017.3
20260502015517 43 45 1.7 7.0 0.00 0.00 0.00 61 1017.2
20260502015017 43 270 1.7 5.2 0.00 0.00 0.00 61 1017.1
20260502014517 43 293 1.7 5.2 0.00 0.00 0.00 60 1017.1
20260502014017 43 0.0 1.7 0.00 0.00 0.00 62 1017.0
20260502013517 43 293 1.7 7.0 0.00 0.00 0.00 61 1016.9
20260502013017 43 293 1.7 4.3 0.00 0.00 0.00 61 1016.8
20260502012547 43 0.0 4.3 0.00 0.00 0.00 63 1016.8
20260502012047 43 0.0 4.3 0.00 0.00 0.00 63 1016.8
20260502011547 43 0.0 4.3 0.00 0.00 0.00 63 1016.7
20260502011017 42 0.0 1.7 0.00 0.00 0.00 65 1016.8
20260502010517 42 0.0 1.7 0.00 0.00 0.00 66 1016.7
20260502010017 42 0.0 1.7 0.00 0.00 0.00 66 1016.7
20260502005517 43 0.0 1.7 0.00 0.00 0.00 67 1016.6
20260502005017 43 0.0 2.6 0.00 0.00 0.00 65 1016.7
20260502004517 43 0.0 1.7 0.00 0.00 0.00 66 1016.6
20260502004016 43 0.0 1.7 0.00 0.00 0.00 67 1016.7
20260502003517 43 0.0 1.7 0.00 0.00 0.00 66 1016.7
20260502003017 43 0.0 2.6 0.00 0.00 0.00 65 1016.6
20260502002516 43 270 1.7 4.3 0.00 0.00 0.00 65 1016.6
20260502002017 43 0.0 2.6 0.00 0.00 0.00 66 1016.7
20260502001517 43 270 1.7 5.2 0.00 0.00 0.00 65 1016.5
20260502001047 44 0.0 1.7 0.00 0.00 0.00 66 1016.6
20260502000516 44 0.0 1.7 0.00 0.00 0.00 66 1016.6
20260502000017 44 293 1.7 7.0 0.00 0.00 0.00 66 1016.5
20260501235516 44 0.0 1.7 0.00 0.00 0.00 65 1016.5
20260501235017 44 0.0 5.2 0.00 0.00 0.00 65 1016.5
20260501234547 44 0.0 4.3 0.00 0.00 0.00 65 1016.4
20260501234017 44 293 1.7 8.7 0.00 0.00 0.00 65 1016.4
20260501233516 44 0.0 2.6 0.00 0.00 0.00 64 1016.3
20260501233017 44 0.0 7.0 0.00 0.00 0.00 64 1016.4
20260501232516 44 270 1.7 7.0 0.00 0.00 0.00 63 1016.3
20260501232017 44 293 1.7 8.7 0.00 0.00 0.00 63 1016.3
20260501231547 44 0.0 1.7 0.00 0.00 0.00 64 1016.3
20260501231017 45 23 1.7 9.6 0.00 0.00 0.00 62 1016.3
20260501230617 45 0.0 2.6 0.00 0.00 0.00 64 1016.3
20260501230017 45 293 1.7 7.0 0.00 0.00 0.00 63 1016.3
20260501225516 45 293 1.7 7.0 0.00 0.00 0.00 63 1016.3
20260501225017 45 293 1.7 7.0 0.00 0.00 0.00 63 1016.3
20260501224547 45 0.0 8.7 0.00 0.00 0.00 62 1016.3
20260501224017 45 0.0 1.7 0.00 0.00 0.00 62 1016.2
20260501223516 46 0.0 2.6 0.00 0.00 0.00 62 1016.3
20260501223017 45 0.0 5.2 0.00 0.00 0.00 62 1016.3
20260501222516 45 0.0 2.6 0.00 0.00 0.00 62 1016.2